When you browse on this site, cookies collect data to enhance your experience and personalize the content and advertising you see.
Visit our Privacy Policy to learn more. By continuing to use the site, you agree to this use of cookies and data.
  • In Hungary
  • List of Countries
  • For 7 days
  • Water Temperature
  • Weather Map
  • News
  • Weather Widgets
  • user-avatar
    Login

    Hourly Weather Bielsk Podlaski

    Today, 8 December, Sunday

    Time Temperature Precipitation Wind Pressure Humidity
    00:00 +3°C° 0 mm 6 mps 741 mmHg 86%
    01:00 +3°C° 0 mm 6 mps 742 mmHg 87%
    02:00 +2°C° 0 mm 6 mps 742 mmHg 88%
    03:00 +2°C° 0 mm 6 mps 742 mmHg 89%
    04:00 +2°C° 0 mm 6 mps 742 mmHg 91%
    05:00 +1°C° 0 mm 5 mps 742 mmHg 92%
    06:00 +2°C° 0 mm 5 mps 742 mmHg 91%
    07:00 +2°C° 0 mm 5 mps 743 mmHg 90%
    08:00 +3°C° 0 mm 4 mps 743 mmHg 90%
    09:00 +3°C° 0 mm 5 mps 743 mmHg 89%
    10:00 +3°C° 0 mm 5 mps 743 mmHg 89%
    11:00 +3°C° 0 mm 6 mps 743 mmHg 88%
    12:00 +4°C° 0 mm 6 mps 743 mmHg 85%
    13:00 +4°C° 0 mm 6 mps 742 mmHg 81%
    14:00 +4°C° 0 mm 7 mps 742 mmHg 78%
    15:00 +4°C° 0 mm 7 mps 741 mmHg 78%
    16:00 +4°C° 0 mm 7 mps 741 mmHg 77%
    17:00 +3°C° 0 mm 7 mps 740 mmHg 77%
    18:00 +3°C° 0 mm 7 mps 740 mmHg 77%
    19:00 +3°C° 0 mm 7 mps 740 mmHg 77%
    20:00 +4°C° 0 mm 7 mps 739 mmHg 77%
    21:00 +4°C° 0.1 mm 7 mps 739 mmHg 77%
    22:00 +4°C° 0.1 mm 7 mps 739 mmHg 78%
    23:00 +4°C° 0.1 mm 7 mps 738 mmHg 79%

    Tomorrow, 9 December, Monday

    Time Temperature Precipitation Wind Pressure Humidity
    00:00 +4°C° 0.6 mm 7 mps 738 mmHg 82%
    01:00 +4°C° 0.6 mm 7 mps 738 mmHg 85%
    02:00 +4°C° 0.6 mm 7 mps 738 mmHg 88%
    03:00 +4°C° 0.1 mm 6 mps 738 mmHg 88%
    04:00 +4°C° 0.1 mm 6 mps 737 mmHg 88%
    05:00 +4°C° 0.1 mm 6 mps 737 mmHg 88%
    06:00 +4°C° 0.4 mm 6 mps 737 mmHg 88%
    07:00 +4°C° 0.4 mm 6 mps 737 mmHg 88%
    08:00 +4°C° 0.4 mm 6 mps 738 mmHg 89%
    09:00 +4°C° 0.2 mm 6 mps 738 mmHg 88%
    10:00 +5°C° 0.2 mm 6 mps 738 mmHg 87%
    11:00 +5°C° 0.2 mm 6 mps 738 mmHg 87%
    12:00 +5°C° 0 mm 6 mps 738 mmHg 85%
    13:00 +5°C° 0 mm 6 mps 738 mmHg 83%
    14:00 +6°C° 0 mm 5 mps 738 mmHg 81%
    15:00 +6°C° 0 mm 5 mps 738 mmHg 82%
    16:00 +6°C° 0 mm 4 mps 738 mmHg 83%
    17:00 +5°C° 0 mm 4 mps 738 mmHg 84%
    18:00 +5°C° 0 mm 4 mps 739 mmHg 84%
    19:00 +5°C° 0 mm 4 mps 739 mmHg 85%
    20:00 +4°C° 0 mm 4 mps 740 mmHg 86%
    21:00 +4°C° 0 mm 4 mps 740 mmHg 85%
    22:00 +4°C° 0 mm 4 mps 740 mmHg 85%
    23:00 +3°C° 0 mm 4 mps 740 mmHg 84%

    Day after tomorrow, 10 December, Tuesday

    Time Temperature Precipitation Wind Pressure Humidity
    00:00 +3°C° 0 mm 4 mps 740 mmHg 85%
    01:00 +3°C° 0 mm 4 mps 741 mmHg 85%
    02:00 +3°C° 0 mm 4 mps 741 mmHg 86%
    03:00 +3°C° 0 mm 4 mps 741 mmHg 85%
    04:00 +3°C° 0 mm 4 mps 741 mmHg 85%
    05:00 +3°C° 0 mm 4 mps 741 mmHg 85%
    06:00 +3°C° 0 mm 4 mps 742 mmHg 85%
    07:00 +3°C° 0 mm 4 mps 743 mmHg 85%
    08:00 +3°C° 0 mm 4 mps 743 mmHg 85%
    09:00 +3°C° 0 mm 5 mps 744 mmHg 85%
    10:00 +3°C° 0 mm 5 mps 745 mmHg 85%
    11:00 +3°C° 0 mm 5 mps 745 mmHg 85%
    12:00 +3°C° 0 mm 5 mps 746 mmHg 81%
    13:00 +3°C° 0 mm 5 mps 746 mmHg 76%
    14:00 +3°C° 0 mm 5 mps 747 mmHg 71%
    15:00 +3°C° 0 mm 4 mps 747 mmHg 72%
    16:00 +3°C° 0 mm 4 mps 747 mmHg 72%
    17:00 +3°C° 0 mm 3 mps 748 mmHg 72%
    18:00 +3°C° 0 mm 3 mps 748 mmHg 75%
    19:00 +4°C° 0 mm 2 mps 749 mmHg 79%
    20:00 +3°C° 0 mm 2 mps 750 mmHg 82%
    21:00 +3°C° 0 mm 2 mps 750 mmHg 84%
    22:00 +3°C° 0 mm 2 mps 750 mmHg 86%
    23:00 +3°C° 0 mm 1 mps 750 mmHg 87%

    11 December, Wednesday

    Time Temperature Precipitation Wind Pressure Humidity
    00:00 +3°C° 0 mm 1 mps 751 mmHg 88%
    01:00 +3°C° 0 mm 1 mps 751 mmHg 90%
    02:00 +3°C° 0 mm 1 mps 751 mmHg 91%
    03:00 +3°C° 0 mm 1 mps 751 mmHg 91%
    04:00 +3°C° 0 mm 1 mps 751 mmHg 91%
    05:00 +3°C° 0 mm 1 mps 752 mmHg 91%
    06:00 +2°C° 0 mm 1 mps 752 mmHg 92%
    07:00 +2°C° 0 mm 1 mps 752 mmHg 92%
    08:00 +2°C° 0 mm 1 mps 752 mmHg 93%
    09:00 +1°C° 0 mm 2 mps 752 mmHg 90%
    10:00 +2°C° 0 mm 2 mps 752 mmHg 87%
    11:00 +1°C° 0 mm 3 mps 752 mmHg 84%
    12:00 +2°C° 0 mm 3 mps 752 mmHg 82%
    13:00 +2°C° 0 mm 3 mps 751 mmHg 79%
    14:00 +1°C° 0 mm 4 mps 751 mmHg 77%
    15:00 +1°C° 0 mm 4 mps 751 mmHg 79%
    16:00 0°C° 0 mm 4 mps 750 mmHg 81%
    17:00 0°C° 0 mm 4 mps 750 mmHg 83%
    18:00 0°C° 0 mm 4 mps 750 mmHg 82%
    19:00 0°C° 0 mm 4 mps 750 mmHg 81%
    20:00 -1°C° 0 mm 4 mps 750 mmHg 81%
    21:00 -1°C° 0 mm 4 mps 749 mmHg 82%
    22:00 -1°C° 0 mm 4 mps 749 mmHg 83%
    23:00 -1°C° 0 mm 4 mps 749 mmHg 85%

    12 December, Thursday

    Time Temperature Precipitation Wind Pressure Humidity
    00:00 -1°C° 0 mm 4 mps 748 mmHg 86%
    01:00 -1°C° 0 mm 4 mps 748 mmHg 88%
    02:00 -2°C° 0 mm 5 mps 747 mmHg 90%
    03:00 -2°C° 0 mm 5 mps 747 mmHg 91%
    04:00 -1°C° 0 mm 5 mps 746 mmHg 92%
    05:00 -1°C° 0 mm 5 mps 745 mmHg 93%
    06:00 -1°C° 0 mm 5 mps 745 mmHg 93%
    07:00 -1°C° 0 mm 5 mps 745 mmHg 93%
    08:00 -1°C° 0 mm 5 mps 745 mmHg 93%
    09:00 -1°C° 0 mm 5 mps 745 mmHg 90%
    10:00 0°C° 0 mm 5 mps 745 mmHg 87%
    11:00 0°C° 0 mm 5 mps 745 mmHg 84%
    12:00 0°C° 0 mm 5 mps 745 mmHg 82%
    13:00 +1°C° 0 mm 5 mps 745 mmHg 79%
    14:00 +1°C° 0 mm 5 mps 745 mmHg 76%
    15:00 0°C° 0 mm 4 mps 745 mmHg 79%
    16:00 0°C° 0 mm 4 mps 745 mmHg 81%
    17:00 +1°C° 0 mm 3 mps 745 mmHg 84%
    18:00 0°C° 0 mm 3 mps 745 mmHg 86%
    19:00 0°C° 0 mm 3 mps 745 mmHg 89%
    20:00 -1°C° 0 mm 3 mps 745 mmHg 91%
    21:00 -1°C° 0 mm 3 mps 745 mmHg 91%
    22:00 0°C° 0 mm 3 mps 745 mmHg 90%
    23:00 0°C° 0 mm 3 mps 745 mmHg 90%

    13 December, Friday

    Time Temperature Precipitation Wind Pressure Humidity
    00:00 -1°C° 0 mm 3 mps 745 mmHg 90%
    01:00 -1°C° 0 mm 3 mps 744 mmHg 91%
    02:00 -1°C° 0 mm 3 mps 744 mmHg 92%
    03:00 -1°C° 0 mm 3 mps 743 mmHg 92%
    04:00 -1°C° 0 mm 3 mps 743 mmHg 92%
    05:00 -2°C° 0 mm 3 mps 742 mmHg 92%
    06:00 -3°C° 0 mm 4 mps 742 mmHg 92%
    07:00 -2°C° 0 mm 5 mps 741 mmHg 91%
    08:00 -2°C° 0 mm 5 mps 740 mmHg 90%
    09:00 -2°C° 0 mm 6 mps 740 mmHg 86%
    10:00 -1°C° 0 mm 7 mps 739 mmHg 82%
    11:00 0°C° 0 mm 8 mps 738 mmHg 78%
    12:00 0°C° 0 mm 8 mps 737 mmHg 76%
    13:00 +1°C° 0 mm 8 mps 736 mmHg 73%
    14:00 +1°C° 0 mm 9 mps 735 mmHg 71%
    15:00 +1°C° 0 mm 9 mps 735 mmHg 71%
    16:00 +1°C° 0 mm 8 mps 734 mmHg 72%
    17:00 0°C° 0 mm 8 mps 733 mmHg 73%
    18:00 0°C° 0.1 mm 8 mps 733 mmHg 78%
    19:00 -1°C° 0.1 mm 8 mps 733 mmHg 82%
    20:00 -1°C° 0.1 mm 8 mps 733 mmHg 87%
    21:00 -1°C° 0.4 mm 8 mps 733 mmHg 90%
    22:00 -1°C° 0.4 mm 7 mps 733 mmHg 93%
    23:00 -1°C° 0.4 mm 7 mps 733 mmHg 96%
    Show more